When you browse on this site, cookies collect data to enhance your experience and personalize the content and advertising you see.
Visit our Privacy Policy to learn more. By continuing to use the site, you agree to this use of cookies and data.
  • In Switzerland
  • List of Countries
  • For 7 days
  • Water Temperature
  • Satellite Maps
  • Weather Map
  • Weather Widgets
  • user-avatar
    Login

    Hourly Weather Burhanovka

    Today, 20 November, Tuesday

    Time Temperature Precipitation Wind Pressure Humidity
    00:00 -2°C° 0.2 mm 1 mps 739 mmHg 94%
    01:00 -2°C° 0.2 mm 1 mps 739 mmHg 94%
    02:00 -2°C° 0.2 mm 1 mps 739 mmHg 94%
    03:00 -2°C° 0.2 mm 1 mps 739 mmHg 94%
    04:00 -2°C° 0 mm 1 mps 738 mmHg 95%
    05:00 -2°C° 0.2 mm 1 mps 738 mmHg 95%
    06:00 -2°C° 0.2 mm 1 mps 738 mmHg 95%
    07:00 -2°C° 0.2 mm 1 mps 738 mmHg 96%
    08:00 -2°C° 0.1 mm 1 mps 738 mmHg 95%
    09:00 -2°C° 0.1 mm 1 mps 738 mmHg 94%
    10:00 -2°C° 0 mm 1 mps 738 mmHg 93%
    11:00 -1°C° 0 mm 1 mps 738 mmHg 92%
    12:00 -3°C° 0 mm 2 mps 737 mmHg 91%
    13:00 -3°C° 0 mm 2 mps 737 mmHg 90%
    14:00 -3°C° 0 mm 2 mps 737 mmHg 92%
    15:00 -3°C° 0 mm 2 mps 737 mmHg 93%
    16:00 -3°C° 0 mm 2 mps 736 mmHg 95%
    17:00 -3°C° 0 mm 2 mps 736 mmHg 95%
    18:00 -4°C° 0 mm 2 mps 736 mmHg 96%
    19:00 -4°C° 0 mm 2 mps 736 mmHg 96%
    20:00 -4°C° 0 mm 2 mps 735 mmHg 96%
    21:00 -4°C° 0 mm 2 mps 735 mmHg 96%
    22:00 -4°C° 0 mm 2 mps 734 mmHg 96%
    23:00 -5°C° 0.1 mm 3 mps 734 mmHg 95%

    Tomorrow, 21 November, Wednesday

    Time Temperature Precipitation Wind Pressure Humidity
    00:00 -5°C° 0.1 mm 3 mps 733 mmHg 94%
    01:00 -5°C° 0.1 mm 3 mps 733 mmHg 93%
    02:00 -5°C° 0 mm 3 mps 732 mmHg 92%
    03:00 -7°C° 0 mm 4 mps 732 mmHg 91%
    04:00 -7°C° 0 mm 4 mps 731 mmHg 90%
    05:00 -7°C° 0.1 mm 4 mps 730 mmHg 89%
    06:00 -7°C° 0.1 mm 5 mps 730 mmHg 88%
    07:00 -7°C° 0.1 mm 5 mps 729 mmHg 87%
    08:00 -7°C° 0.2 mm 5 mps 728 mmHg 87%
    09:00 -8°C° 0.2 mm 6 mps 727 mmHg 87%
    10:00 -8°C° 0.2 mm 6 mps 727 mmHg 86%
    11:00 -8°C° 0.5 mm 6 mps 726 mmHg 88%
    12:00 -8°C° 0.5 mm 6 mps 725 mmHg 89%
    13:00 -8°C° 0.5 mm 6 mps 725 mmHg 90%
    14:00 -8°C° 0.4 mm 6 mps 724 mmHg 90%
    15:00 -7°C° 0.4 mm 5 mps 723 mmHg 90%
    16:00 -7°C° 0.4 mm 5 mps 723 mmHg 90%
    17:00 -7°C° 0.3 mm 5 mps 723 mmHg 90%
    18:00 -7°C° 0.3 mm 5 mps 722 mmHg 91%
    19:00 -7°C° 0.3 mm 5 mps 722 mmHg 91%
    20:00 -7°C° 0.2 mm 5 mps 722 mmHg 88%
    21:00 -8°C° 0.2 mm 5 mps 722 mmHg 86%
    22:00 -10°C° 0.2 mm 5 mps 722 mmHg 83%
    23:00 -10°C° 0.1 mm 5 mps 722 mmHg 85%

    Day after tomorrow, 22 November, Thursday

    Time Temperature Precipitation Wind Pressure Humidity
    00:00 -11°C° 0.1 mm 5 mps 722 mmHg 86%
    01:00 -11°C° 0.1 mm 6 mps 722 mmHg 87%
    02:00 -11°C° 0.2 mm 5 mps 722 mmHg 87%
    03:00 -11°C° 0.2 mm 5 mps 722 mmHg 87%
    04:00 -11°C° 0.2 mm 5 mps 723 mmHg 87%
    05:00 -11°C° 0.2 mm 5 mps 723 mmHg 87%
    06:00 -11°C° 0.2 mm 5 mps 723 mmHg 88%
    07:00 -12°C° 0.2 mm 5 mps 723 mmHg 89%
    08:00 -12°C° 0.1 mm 5 mps 723 mmHg 87%
    09:00 -11°C° 0.1 mm 4 mps 724 mmHg 86%
    10:00 -12°C° 0.1 mm 4 mps 724 mmHg 85%
    11:00 -12°C° 0 mm 4 mps 724 mmHg 85%
    12:00 -11°C° 0 mm 4 mps 724 mmHg 84%
    13:00 -11°C° 0 mm 4 mps 724 mmHg 83%
    14:00 -12°C° 0 mm 3 mps 724 mmHg 85%
    15:00 -12°C° 0 mm 3 mps 724 mmHg 86%
    16:00 -13°C° 0 mm 3 mps 724 mmHg 88%
    17:00 -13°C° 0 mm 3 mps 724 mmHg 90%
    18:00 -14°C° 0 mm 3 mps 723 mmHg 91%
    19:00 -14°C° 0 mm 3 mps 723 mmHg 93%
    20:00 -15°C° 0.1 mm 4 mps 722 mmHg 92%
    21:00 -14°C° 0.1 mm 4 mps 722 mmHg 91%
    22:00 -13°C° 0.1 mm 5 mps 721 mmHg 90%
    23:00 -12°C° 0.5 mm 5 mps 720 mmHg 90%

    23 November, Friday

    Time Temperature Precipitation Wind Pressure Humidity
    00:00 -11°C° 0.5 mm 6 mps 720 mmHg 91%
    01:00 -10°C° 0.5 mm 6 mps 719 mmHg 91%
    02:00 -10°C° 0.4 mm 6 mps 719 mmHg 91%
    03:00 -10°C° 0.4 mm 5 mps 718 mmHg 91%
    04:00 -8°C° 0.4 mm 5 mps 718 mmHg 91%
    05:00 -10°C° 0.3 mm 5 mps 718 mmHg 92%
    06:00 -9°C° 0.3 mm 4 mps 718 mmHg 93%
    07:00 -9°C° 0.3 mm 4 mps 718 mmHg 94%
    08:00 -8°C° 0.3 mm 3 mps 718 mmHg 94%
    09:00 -8°C° 0.3 mm 3 mps 719 mmHg 94%
    10:00 -7°C° 0.3 mm 2 mps 719 mmHg 93%
    11:00 -8°C° 0.1 mm 3 mps 720 mmHg 93%
    12:00 -8°C° 0.1 mm 3 mps 720 mmHg 92%
    13:00 -8°C° 0.1 mm 3 mps 721 mmHg 91%
    14:00 -9°C° 0.1 mm 3 mps 721 mmHg 90%
    15:00 -11°C° 0.1 mm 4 mps 722 mmHg 90%
    16:00 -12°C° 0.1 mm 4 mps 722 mmHg 89%
    17:00 -13°C° 0 mm 5 mps 723 mmHg 87%
    18:00 -14°C° 0 mm 5 mps 723 mmHg 86%
    19:00 -16°C° 0 mm 6 mps 724 mmHg 84%
    20:00 -17°C° 0 mm 6 mps 725 mmHg 85%
    21:00 -17°C° 0 mm 5 mps 726 mmHg 86%
    22:00 -18°C° 0 mm 5 mps 726 mmHg 86%
    23:00 -19°C° 0 mm 5 mps 727 mmHg 88%

    24 November, Saturday

    Time Temperature Precipitation Wind Pressure Humidity
    00:00 -19°C° 0 mm 4 mps 728 mmHg 91%
    01:00 -20°C° 0 mm 4 mps 729 mmHg 93%
    02:00 -19°C° 0 mm 3 mps 729 mmHg 94%
    03:00 -21°C° 0 mm 3 mps 730 mmHg 95%
    04:00 -19°C° 0 mm 2 mps 730 mmHg 97%
    05:00 -19°C° 0 mm 2 mps 731 mmHg 97%
    06:00 -19°C° 0 mm 2 mps 731 mmHg 97%
    07:00 -19°C° 0 mm 2 mps 731 mmHg 98%
    08:00 -18°C° 0.1 mm 2 mps 731 mmHg 97%
    09:00 -18°C° 0.1 mm 3 mps 732 mmHg 95%
    10:00 -17°C° 0.1 mm 4 mps 732 mmHg 94%
    11:00 -16°C° 0.1 mm 4 mps 732 mmHg 93%
    12:00 -15°C° 0.1 mm 4 mps 731 mmHg 92%
    13:00 -14°C° 0.1 mm 5 mps 731 mmHg 91%
    14:00 -13°C° 0.3 mm 5 mps 731 mmHg 91%
    15:00 -12°C° 0.3 mm 6 mps 731 mmHg 91%
    16:00 -11°C° 0.3 mm 6 mps 731 mmHg 91%
    17:00 -12°C° 0.3 mm 7 mps 730 mmHg 90%
    18:00 -12°C° 0.3 mm 7 mps 730 mmHg 89%
    19:00 -12°C° 0.3 mm 7 mps 730 mmHg 89%
    20:00 -12°C° 0.2 mm 7 mps 730 mmHg 88%
    21:00 -12°C° 0.2 mm 7 mps 730 mmHg 88%
    22:00 -12°C° 0.2 mm 7 mps 730 mmHg 87%
    23:00 -12°C° 0.2 mm 7 mps 730 mmHg 88%

    25 November, Sunday

    Time Temperature Precipitation Wind Pressure Humidity
    00:00 -11°C° 0.2 mm 7 mps 730 mmHg 88%
    01:00 -11°C° 0.2 mm 7 mps 730 mmHg 88%
    02:00 -11°C° 0.2 mm 7 mps 729 mmHg 88%
    03:00 -11°C° 0.2 mm 7 mps 729 mmHg 88%
    04:00 -10°C° 0.2 mm 8 mps 729 mmHg 88%
    05:00 -10°C° 0.2 mm 8 mps 729 mmHg 88%
    06:00 -10°C° 0.2 mm 8 mps 728 mmHg 88%
    07:00 -10°C° 0.2 mm 8 mps 728 mmHg 88%
    08:00 -10°C° 0.3 mm 8 mps 728 mmHg 88%
    09:00 -9°C° 0.3 mm 7 mps 729 mmHg 88%
    10:00 -8°C° 0.3 mm 7 mps 729 mmHg 88%
    11:00 -8°C° 0.2 mm 7 mps 729 mmHg 88%
    12:00 -8°C° 0.2 mm 7 mps 729 mmHg 88%
    13:00 -8°C° 0.2 mm 7 mps 730 mmHg 88%
    14:00 -8°C° 0.1 mm 6 mps 730 mmHg 88%
    15:00 -8°C° 0.1 mm 6 mps 731 mmHg 88%
    16:00 -7°C° 0.1 mm 5 mps 731 mmHg 88%
    17:00 -8°C° 0.1 mm 5 mps 732 mmHg 89%
    18:00 -8°C° 0.1 mm 5 mps 732 mmHg 90%
    19:00 -8°C° 0.1 mm 4 mps 733 mmHg 91%
    20:00 -8°C° 0.1 mm 4 mps 733 mmHg 92%
    21:00 -9°C° 0.1 mm 4 mps 734 mmHg 92%
    22:00 -9°C° 0.1 mm 4 mps 734 mmHg 93%
    23:00 -9°C° 0 mm 3 mps 734 mmHg 93%
    Show more